[[{"header":{"parameterUnit":"m.s-1","parameterCategory":1,"la1":30.2991,"la2":30.254,"lo1":-89.0895,"lo2":-89.0444,"dy":0.0017,"dx":0.0017,"nx":28,"ny":28,"refTime":"2024-10-17T21:00:00:Z","depth":0,"parameterNumber":2,"parameterNumberName":"U-component_of_WINDS"},"data":[0,0,0,0,0,0,0,0,0,0,0,0,0,0,0,0,0,0,0,0,0,0,0,0,0,0,0,0,0,0,0,0,0,0,0,0,0,0,0,0,0,0,0,0,0,0,0,0,0,0,0,0,0,0,0,0,0,0,-5.8515,-5.8517,0,-5.8634,-5.8636,-5.8637,-5.8534,-5.853,-5.8526,-5.8522,-5.8645,-5.8652,-5.866,0,0,0,0,0,0,0,0,0,0,0,0,0,-5.8202,-5.8209,-5.8515,-5.8517,-5.8518,-5.8634,-5.8636,-5.8637,-5.8535,-5.853,-5.8525,-5.852,-5.8643,-5.8652,-5.866,0,0,0,0,0,0,0,0,0,0,0,0,0,-5.8332,-5.8211,-5.8515,-5.8481,-5.8479,-5.8634,-5.8636,-5.8638,-5.8536,-5.853,-5.8523,-5.8517,-5.864,-5.8651,-5.8661,-5.8856,0,0,-5.8695,-5.8699,0,0,0,0,0,0,0,0,-5.8324,-5.8343,-5.8485,-5.8484,-5.8482,-5.8563,-5.857,-5.8711,-5.8538,-5.8515,-5.8521,-5.8514,-5.8623,-5.8635,-5.8671,-5.8862,-5.8867,-5.8696,-5.8702,-5.8707,-5.871,0,0,0,0,0,0,0,-5.8316,-5.8337,-5.8562,-5.8487,-5.8485,-5.8461,-5.8472,-5.8597,-5.8603,-5.8516,-5.8509,-5.8524,-5.8621,-5.8661,-5.8674,-5.8869,-5.8695,-5.8705,-5.8712,-5.8716,-5.9228,-5.9234,0,0,0,0,0,0,-5.831,-5.8331,-5.8559,-5.8566,-5.8386,-5.8472,-5.8484,-5.8543,-5.8602,-5.8604,-5.853,-5.8519,-5.8646,-5.8661,-5.8678,-5.8911,-5.8707,-5.8717,-5.8723,-5.9221,-5.9229,-5.9237,0,0,0,0,0,0,-5.8303,-5.8331,-5.8554,-5.8446,-5.8473,-5.8484,-5.8551,-5.8549,-5.8589,-5.8612,-5.8613,-5.8569,-5.8641,-5.8662,-5.8813,-5.8914,-5.8722,-5.8732,-5.9212,-5.9223,-5.9233,-5.9379,0,0,0,0,0,0,-5.8295,-5.8329,-5.8403,-5.8449,-5.8479,-5.8687,-5.8557,-5.8556,-5.8608,-5.8595,-5.8649,-5.8652,-5.8638,-5.8797,-5.8824,-5.8925,-5.874,-5.9203,-5.9217,-5.923,-5.9365,-5.9393,-5.9417,0,0,0,0,0,-5.8284,-5.8439,-5.8407,-5.8435,-5.8571,-5.8693,-5.871,-5.869,-5.8616,-5.8691,-5.8706,-5.865,-5.8898,-5.8814,-5.8842,-5.8949,-5.9197,-5.9213,-5.9229,-5.9353,-5.9388,-5.9416,0,0,0,0,0,0,-5.8405,-5.8444,-5.8409,-5.8584,-5.8636,-5.8675,-5.8768,-5.8727,-5.8801,-5.8787,-5.8759,-5.8772,-5.8932,-5.8955,-5.886,-5.9142,-5.9036,-5.9058,-5.9121,-5.9153,-5.9179,-5.9171,-5.8749,0,0,0,0,0,-5.8452,-5.8547,-5.8576,-5.8727,-5.8755,-5.8758,-5.881,-5.879,-5.8843,-5.8865,-5.8891,-5.8945,-5.9035,-5.9095,-5.9179,-5.9367,-5.9379,-5.9455,-5.9481,-5.9502,-5.9523,-5.9626,-5.9661,-5.9289,-5.9289,-5.9289,0,0,-5.855,-5.8583,-5.8645,-5.8753,-5.8791,-5.8891,-5.8777,-5.8887,-5.8962,-5.8882,-5.9026,-5.9047,-5.9106,-5.9277,-5.9353,-5.9301,-5.9628,-5.9523,-5.9539,-5.9548,-5.9646,-5.9681,-5.9713,-5.93,-5.9298,-5.9296,0,0,-5.878,-5.8814,-5.8945,-5.8985,-5.9044,-5.9045,-5.9076,-5.9123,-5.9134,-5.9278,-5.922,-5.9309,-5.9464,-5.9509,-5.9552,-5.9801,-5.9754,-5.9829,-5.9966,-6.0067,-6.0096,-6.0122,-6.0213,-6.0246,-5.9849,-5.9849,-5.985,0,-5.8895,-5.9043,-5.9017,-5.9132,-5.9182,-5.9114,-5.9247,-5.9288,-5.9372,-5.9408,-5.9348,-5.9543,-5.9577,-5.9759,-5.982,-5.9856,-5.9893,-5.9824,-6.0094,-6.012,-6.0143,-6.023,-6.0264,-5.9858,-5.9857,-5.9856,-5.9855,0,-5.9182,-5.9285,-5.9384,-5.9467,-5.9527,-5.9651,-5.9645,-5.971,-5.9685,-5.9693,-5.9842,-5.9881,-5.9973,-6.0014,-5.9991,-6.0193,-6.0159,-6.0097,-5.9991,-6.0188,-6.0269,-6.0302,-5.9871,-5.9868,-5.9865,-5.9863,0,0,-5.9492,-5.9559,-5.9596,-5.9634,-5.9694,-5.9774,-5.9895,-5.9985,-6.0042,-6.0102,-6.0204,-6.0338,-6.0281,-6.033,-6.0312,-6.04,-6.0598,-6.0327,-6.0328,-6.0378,-6.0826,-6.0874,-6.0912,-6.0566,-6.0572,-6.0577,-6.0821,0,-5.9726,-5.9936,-5.9917,-6.0117,-6.0213,-6.0151,-6.0256,-6.0306,-6.0316,-6.04,-6.0412,-6.0508,-6.0425,-6.0454,-6.0539,-6.0556,-6.0687,-6.0537,-6.0663,-6.0667,-6.0652,-6.0954,-6.1004,-6.1233,-6.0853,-6.0858,-6.0862,0,-6.0027,-6.0098,-6.0308,-6.0355,-6.0395,-6.049,-6.0572,-6.0652,-6.0707,-6.0709,-6.0765,-6.0731,-6.0855,-6.0745,-6.0915,-6.0814,-6.0864,-6.088,-6.0888,-6.0901,-6.0778,-6.0976,-6.1305,-6.1341,-6.0911,-6.0907,-6.0903,0,-6.0235,-6.0383,-6.0528,-6.0562,-6.062,-6.0689,-6.0716,-6.0765,-6.0821,-6.0892,-6.0928,-6.1013,-6.106,-6.1127,-6.1119,-6.1039,-6.1294,-6.1182,-6.13,-6.1301,-6.1358,-6.1355,-6.1702,-6.1387,-6.1387,-6.1386,-6.1385,0,-6.05,-6.0631,-6.0622,-6.0712,-6.0857,-6.0835,-6.098,-6.0999,-6.1044,-6.1137,-6.1087,-6.1176,-6.1157,-6.1246,-6.124,-6.1384,-6.1405,-6.1411,-6.1409,-6.1417,-6.1417,-6.1451,-6.1435,-6.1395,-6.1393,-6.1391,-6.139,0,-6.0757,-6.0756,-6.0911,-6.0953,-6.0967,-6.1073,-6.111,-6.1195,-6.1201,-6.132,-6.1346,-6.1357,-6.1459,-6.1457,-6.1573,-6.1569,-6.1746,-6.1724,-6.1728,-6.1724,-6.1843,-6.1833,-6.2226,-6.2277,-6.1927,-6.1931,-6.1933,0,-6.0927,-6.1026,-6.108,-6.1138,-6.1171,-6.1265,-6.1322,-6.1304,-6.1365,-6.1436,-6.1514,-6.1611,-6.1688,-6.1855,-6.1874,-6.1963,-6.1943,-6.2075,-6.1957,-6.1963,-6.1948,-6.1943,-6.1954,-6.2099,-6.2103,-6.2106,-6.2108,0,-6.1229,-6.1224,-6.1307,-6.1391,-6.146,-6.1525,-6.1585,-6.1636,-6.1625,-6.1696,-6.18,-6.186,-6.1979,-6.2077,-6.2163,-6.2192,-6.2151,-6.2145,-6.2178,-6.2189,-6.2188,-6.2192,-6.1793,-6.2137,-6.2134,-6.2132,-6.213,-6.2129,-6.1449,-6.1535,-6.1587,-6.1682,-6.1725,-6.1782,-6.1865,-6.1882,-6.1968,-6.2063,-6.2047,-6.2164,-6.2218,-6.2329,-6.2366,-6.2458,-6.2412,-6.2458,-6.2471,-6.2483,-6.2497,-6.2172,-6.2474,-6.2473,-6.2472,-6.2471,-6.2471,0,-6.175,-6.1781,-6.1868,-6.1954,-6.2029,-6.1981,-6.2045,-6.2112,-6.2215,-6.2268,-6.2345,-6.2466,-6.2561,-6.2588,-6.268,-6.2749,-6.2732,-6.2774,-6.277,-6.2778,-6.2532,-6.2496,-6.2786,-6.2786,-6.2786,-6.2786,-6.2786,-6.2786,-6.1916,-6.206,-6.2062,-6.2227,-6.2256,-6.237,-6.2411,-6.2465,-6.2508,-6.2644,-6.2723,-6.2739,-6.2783,-6.2878,-6.2964,-6.297,-6.3007,-6.3058,-6.3056,-6.2826,-6.2795,-6.2765,-6.273,-6.3065,-6.3066,-6.3294,-6.3296,-6.3298]},{"header":{"parameterUnit":"m.s-1","parameterCategory":1,"la1":30.2991,"la2":30.254,"lo1":-89.0895,"lo2":-89.0444,"dy":0.0017,"dx":0.0017,"nx":28,"ny":28,"refTime":"2024-10-17T21:00:00:Z","depth":0,"parameterNumber":3,"parameterNumberName":"V-component_of_WINDS"},"data":[0,0,0,0,0,0,0,0,0,0,0,0,0,0,0,0,0,0,0,0,0,0,0,0,0,0,0,0,0,0,0,0,0,0,0,0,0,0,0,0,0,0,0,0,0,0,0,0,0,0,0,0,0,0,0,0,0,0,-2.6767,-2.6767,0,-2.6707,-2.6706,-2.6705,-2.662,-2.6619,-2.6617,-2.6616,-2.6556,-2.6555,-2.6555,0,0,0,0,0,0,0,0,0,0,0,0,0,-2.681,-2.6809,-2.6767,-2.6767,-2.6766,-2.6707,-2.6706,-2.6705,-2.662,-2.6618,-2.6617,-2.6615,-2.6556,-2.6555,-2.6555,0,0,0,0,0,0,0,0,0,0,0,0,0,-2.6775,-2.6809,-2.6767,-2.6716,-2.6711,-2.6707,-2.6706,-2.6705,-2.6621,-2.6618,-2.6616,-2.6614,-2.6556,-2.6555,-2.6555,-2.6597,0,0,-2.6554,-2.6554,0,0,0,0,0,0,0,0,-2.6777,-2.6773,-2.6725,-2.672,-2.6714,-2.6669,-2.6699,-2.6669,-2.6621,-2.6655,-2.6616,-2.6613,-2.6595,-2.6591,-2.6585,-2.6594,-2.6592,-2.6554,-2.6554,-2.6554,-2.6554,0,0,0,0,0,0,0,-2.6779,-2.6775,-2.6743,-2.6724,-2.6717,-2.6696,-2.6689,-2.6693,-2.6638,-2.6652,-2.6646,-2.6639,-2.6592,-2.6585,-2.6583,-2.6591,-2.6554,-2.6554,-2.6553,-2.6553,-2.6629,-2.6631,0,0,0,0,0,0,-2.6789,-2.6778,-2.6745,-2.6742,-2.674,-2.6697,-2.6689,-2.6685,-2.6638,-2.6629,-2.6641,-2.6636,-2.6587,-2.6583,-2.658,-2.6625,-2.6554,-2.6553,-2.6553,-2.6627,-2.663,-2.6632,0,0,0,0,0,0,-2.679,-2.6787,-2.6748,-2.6758,-2.6751,-2.6699,-2.6696,-2.6685,-2.6679,-2.663,-2.662,-2.6645,-2.6585,-2.6581,-2.6593,-2.6622,-2.6553,-2.6553,-2.6624,-2.6628,-2.6631,-2.6716,0,0,0,0,0,0,-2.6792,-2.6788,-2.6803,-2.6759,-2.6751,-2.6761,-2.6697,-2.6686,-2.6678,-2.667,-2.6631,-2.6622,-2.6583,-2.6594,-2.6593,-2.662,-2.6553,-2.6622,-2.6626,-2.663,-2.671,-2.6722,-2.6732,0,0,0,0,0,-2.6794,-2.683,-2.6805,-2.6801,-2.6769,-2.6763,-2.6759,-2.6713,-2.6681,-2.6696,-2.6664,-2.6623,-2.6619,-2.6596,-2.6594,-2.6622,-2.662,-2.6625,-2.663,-2.6706,-2.672,-2.6731,0,0,0,0,0,0,-2.6881,-2.6824,-2.6794,-2.6818,-2.6796,-2.6749,-2.6766,-2.673,-2.6717,-2.671,-2.6654,-2.6646,-2.6665,-2.6644,-2.6619,-2.6659,-2.6613,-2.6618,-2.6671,-2.6684,-2.6695,-2.6699,-2.6552,0,0,0,0,0,-2.6903,-2.6902,-2.6852,-2.6878,-2.6868,-2.682,-2.6815,-2.6782,-2.6757,-2.6748,-2.6717,-2.6695,-2.6688,-2.6685,-2.6676,-2.6707,-2.6696,-2.6725,-2.6735,-2.6744,-2.6749,-2.6762,-2.6774,-2.6649,-2.6648,-2.6648,0,0,-2.6948,-2.6917,-2.692,-2.6895,-2.6874,-2.6875,-2.6812,-2.6816,-2.6816,-2.6748,-2.6757,-2.6734,-2.6705,-2.6726,-2.6734,-2.671,-2.6781,-2.6751,-2.6758,-2.6758,-2.6769,-2.6781,-2.6791,-2.6652,-2.6651,-2.6651,0,0,-2.7031,-2.7008,-2.7025,-2.7005,-2.6974,-2.6941,-2.6945,-2.6903,-2.6885,-2.6893,-2.6841,-2.684,-2.6831,-2.6812,-2.6801,-2.6875,-2.6837,-2.6874,-2.693,-2.6943,-2.6953,-2.6962,-2.6988,-2.6998,-2.6879,-2.6879,-2.688,0,-2.7091,-2.709,-2.704,-2.7046,-2.7036,-2.6973,-2.6991,-2.6974,-2.6942,-2.6936,-2.691,-2.6895,-2.6871,-2.6886,-2.6904,-2.6898,-2.6901,-2.6879,-2.6956,-2.6964,-2.6971,-2.6995,-2.7005,-2.6884,-2.6884,-2.6883,-2.6883,0,-2.7166,-2.7166,-2.7184,-2.7153,-2.7145,-2.7158,-2.7109,-2.7107,-2.7073,-2.7043,-2.7051,-2.7021,-2.7004,-2.7005,-2.6973,-2.7015,-2.7001,-2.6966,-2.6919,-2.6989,-2.701,-2.7019,-2.6891,-2.6889,-2.6888,-2.6887,0,0,-2.7303,-2.7243,-2.7251,-2.7235,-2.7195,-2.7194,-2.7203,-2.7186,-2.7185,-2.7165,-2.717,-2.7163,-2.7129,-2.7117,-2.7082,-2.7094,-2.7154,-2.7057,-2.7055,-2.7076,-2.7197,-2.7224,-2.7235,-2.7127,-2.7129,-2.713,-2.7199,0,-2.7378,-2.739,-2.7343,-2.7367,-2.7366,-2.7305,-2.7313,-2.7289,-2.7261,-2.7256,-2.7224,-2.7219,-2.7176,-2.7168,-2.7177,-2.7145,-2.7177,-2.7139,-2.7132,-2.7133,-2.7141,-2.7247,-2.7275,-2.7342,-2.7207,-2.7209,-2.721,0,-2.7467,-2.745,-2.7474,-2.7431,-2.7429,-2.7437,-2.7416,-2.7412,-2.7384,-2.7362,-2.7348,-2.7307,-2.7312,-2.7267,-2.7273,-2.7248,-2.7242,-2.7226,-2.7227,-2.7225,-2.7176,-2.7247,-2.7362,-2.7372,-2.7223,-2.7222,-2.7221,0,-2.7564,-2.7548,-2.7559,-2.7548,-2.7499,-2.7505,-2.7485,-2.7454,-2.7446,-2.7428,-2.7423,-2.7406,-2.7397,-2.7385,-2.7341,-2.7312,-2.7352,-2.7303,-2.7334,-2.7335,-2.7346,-2.7346,-2.7462,-2.7343,-2.7342,-2.7342,-2.7342,0,-2.7653,-2.767,-2.7602,-2.7609,-2.7625,-2.7572,-2.7589,-2.7563,-2.7536,-2.7536,-2.7483,-2.7485,-2.7426,-2.7421,-2.7387,-2.7396,-2.7393,-2.7375,-2.7366,-2.738,-2.7382,-2.7376,-2.737,-2.7345,-2.7344,-2.7344,-2.7343,0,-2.7765,-2.772,-2.7728,-2.768,-2.7668,-2.7683,-2.7641,-2.7646,-2.7613,-2.7615,-2.7612,-2.7561,-2.7553,-2.7507,-2.7488,-2.7464,-2.7486,-2.7468,-2.7496,-2.749,-2.7523,-2.752,-2.7638,-2.7651,-2.7525,-2.7526,-2.7527,0,-2.7824,-2.7835,-2.7788,-2.7784,-2.7766,-2.7761,-2.7752,-2.77,-2.7693,-2.766,-2.7668,-2.7655,-2.7642,-2.763,-2.7592,-2.7577,-2.7557,-2.7599,-2.7555,-2.7568,-2.7557,-2.7557,-2.7557,-2.7609,-2.7611,-2.7612,-2.7613,0,-2.7934,-2.7911,-2.79,-2.7882,-2.7873,-2.7856,-2.7835,-2.7835,-2.7777,-2.7772,-2.7761,-2.7751,-2.7731,-2.7718,-2.7696,-2.7675,-2.7635,-2.7628,-2.7634,-2.7649,-2.7664,-2.7656,-2.7522,-2.7625,-2.7624,-2.7623,-2.7623,-2.7622,-2.8021,-2.8028,-2.7995,-2.7985,-2.7963,-2.7945,-2.7947,-2.7914,-2.7904,-2.7883,-2.7853,-2.7847,-2.7816,-2.7782,-2.7764,-2.7758,-2.7735,-2.7745,-2.7747,-2.775,-2.7757,-2.7665,-2.7754,-2.7754,-2.7753,-2.7753,-2.7753,0,-2.8128,-2.8104,-2.8095,-2.8067,-2.8059,-2.8021,-2.7996,-2.7991,-2.7986,-2.7961,-2.7949,-2.7936,-2.7923,-2.7883,-2.7866,-2.7869,-2.785,-2.7866,-2.7866,-2.7861,-2.7779,-2.7775,-2.7882,-2.7882,-2.7882,-2.7882,-2.7882,-2.7882,-2.8183,-2.8191,-2.8164,-2.8162,-2.8137,-2.813,-2.8119,-2.8102,-2.8081,-2.807,-2.8059,-2.8032,-2.8001,-2.798,-2.7966,-2.7955,-2.7951,-2.7973,-2.7956,-2.788,-2.7867,-2.7855,-2.7851,-2.7973,-2.7973,-2.8039,-2.8039,-2.804]}]]